TimeCDT,TemperatureF,Dew PointF,Humidity,Sea Level PressureIn,VisibilityMPH,Wind Direction,Wind SpeedMPH,Gust SpeedMPH,PrecipitationIn,Events,Conditions,WindDirDegrees,DateUTC
12:05 AM,53.6,53.6,100,29.91,10.0,SSW,9.2,-,N/A,,Overcast,210,2013-03-31 05:05:00
12:09 AM,53.6,53.6,100,29.91,10.0,SSW,12.7,-,N/A,,Overcast,210,2013-03-31 05:09:00
12:22 AM,53.6,53.6,100,29.91,9.0,SW,11.5,-,N/A,,Overcast,220,2013-03-31 05:22:00
12:24 AM,53.6,53.6,100,29.90,8.0,SW,12.7,-,N/A,,Light Drizzle,220,2013-03-31 05:24:00
12:25 AM,53.6,53.6,100,29.91,7.0,SW,12.7,-,N/A,,Light Drizzle,230,2013-03-31 05:25:00
12:28 AM,53.6,53.6,100,29.91,6.0,SW,12.7,-,N/A,,Light Drizzle,230,2013-03-31 05:28:00
12:36 AM,53.6,53.6,100,29.91,7.0,WSW,13.8,-,N/A,,Overcast,240,2013-03-31 05:36:00
12:42 AM,53.6,53.6,100,29.91,6.0,WSW,16.1,-,N/A,,Overcast,240,2013-03-31 05:42:00
12:55 AM,53.8,53.8,100,29.91,5.0,WSW,13.8,-,0.00,,Overcast,240,2013-03-31 05:55:00
1:19 AM,53.6,53.6,100,29.91,8.0,WSW,11.5,-,N/A,,Overcast,250,2013-03-31 06:19:00
1:22 AM,53.6,53.6,100,29.91,9.0,WSW,11.5,-,N/A,,Overcast,250,2013-03-31 06:22:00
1:53 AM,53.6,53.6,100,29.91,10.0,West,15.0,-,N/A,,Overcast,260,2013-03-31 06:53:00
1:55 AM,53.4,53.4,100,29.91,10.0,West,12.7,-,N/A,,Overcast,260,2013-03-31 06:55:00
2:46 AM,51.8,51.8,100,29.90,10.0,West,11.5,-,N/A,,Overcast,260,2013-03-31 07:46:00
2:53 AM,51.8,51.8,100,29.90,10.0,West,12.7,-,N/A,,Overcast,270,2013-03-31 07:53:00
2:55 AM,52.5,52.5,100,29.90,10.0,West,12.7,-,N/A,,Overcast,270,2013-03-31 07:55:00
3:07 AM,51.8,51.8,100,29.90,10.0,West,12.7,-,N/A,,Overcast,260,2013-03-31 08:07:00
3:17 AM,51.8,51.8,100,29.89,10.0,West,10.4,-,N/A,,Overcast,270,2013-03-31 08:17:00
3:38 AM,51.8,51.8,100,29.88,10.0,West,8.1,-,N/A,,Overcast,270,2013-03-31 08:38:00
3:45 AM,51.8,51.8,100,29.88,8.0,West,6.9,-,N/A,,Overcast,280,2013-03-31 08:45:00
3:48 AM,51.8,51.8,100,29.88,6.0,West,6.9,-,N/A,,Overcast,280,2013-03-31 08:48:00
3:50 AM,51.8,51.8,100,29.88,6.0,West,8.1,-,N/A,,Overcast,280,2013-03-31 08:50:00
3:55 AM,52.2,52.2,100,29.89,5.0,West,8.1,-,N/A,,Overcast,270,2013-03-31 08:55:00
4:02 AM,51.8,51.8,100,29.88,4.0,West,8.1,-,N/A,,Overcast,270,2013-03-31 09:02:00
4:10 AM,51.8,51.8,100,29.88,4.0,WNW,8.1,-,N/A,,Overcast,290,2013-03-31 09:10:00
4:48 AM,51.8,51.8,100,29.89,5.0,West,8.1,-,N/A,,Overcast,280,2013-03-31 09:48:00
4:55 AM,51.6,51.6,100,29.89,7.0,West,6.9,-,N/A,,Overcast,270,2013-03-31 09:55:00
4:59 AM,51.8,51.8,100,29.89,7.0,West,8.1,-,N/A,,Overcast,270,2013-03-31 09:59:00
5:06 AM,51.8,51.8,100,29.89,8.0,West,6.9,-,N/A,,Overcast,280,2013-03-31 10:06:00
5:15 AM,51.8,51.8,100,29.88,10.0,West,4.6,-,N/A,,Overcast,280,2013-03-31 10:15:00
5:37 AM,51.8,51.8,100,29.88,10.0,West,3.5,-,N/A,,Overcast,260,2013-03-31 10:37:00
5:44 AM,51.8,51.8,100,29.89,10.0,WNW,4.6,-,N/A,,Overcast,290,2013-03-31 10:44:00
5:55 AM,51.4,51.4,100,29.90,10.0,West,4.6,-,N/A,,Overcast,280,2013-03-31 10:55:00
6:05 AM,51.8,51.8,100,29.90,10.0,West,5.8,-,N/A,,Overcast,260,2013-03-31 11:05:00
6:07 AM,51.8,51.8,100,29.90,10.0,WSW,4.6,-,N/A,,Overcast,250,2013-03-31 11:07:00
6:10 AM,51.8,51.8,100,29.90,10.0,WSW,4.6,-,N/A,,Overcast,240,2013-03-31 11:10:00
6:55 AM,51.6,51.6,100,29.91,9.0,WSW,4.6,-,N/A,,Overcast,250,2013-03-31 11:55:00
7:29 AM,51.8,51.8,100,29.91,10.0,West,4.6,-,N/A,,Overcast,260,2013-03-31 12:29:00
7:53 AM,51.8,51.8,100,29.92,9.0,WSW,4.6,-,N/A,,Overcast,250,2013-03-31 12:53:00
7:55 AM,52.0,52.0,100,29.92,9.0,West,4.6,-,N/A,,Overcast,260,2013-03-31 12:55:00
8:03 AM,51.8,51.8,100,29.92,10.0,West,4.6,-,N/A,,Overcast,260,2013-03-31 13:03:00
8:11 AM,51.8,51.8,100,29.92,10.0,WSW,5.8,-,N/A,,Overcast,240,2013-03-31 13:11:00
8:24 AM,51.8,51.8,100,29.92,10.0,West,4.6,-,N/A,,Overcast,260,2013-03-31 13:24:00
8:41 AM,51.8,51.8,100,29.92,10.0,WSW,5.8,-,N/A,,Overcast,250,2013-03-31 13:41:00
8:51 AM,53.6,53.6,100,29.92,10.0,West,4.6,-,N/A,,Overcast,270,2013-03-31 13:51:00
8:55 AM,52.9,52.9,100,29.92,10.0,WNW,5.8,-,N/A,,Overcast,290,2013-03-31 13:55:00
9:01 AM,53.6,53.6,100,29.92,10.0,WNW,6.9,-,N/A,,Overcast,290,2013-03-31 14:01:00
9:35 AM,51.8,51.8,100,29.93,9.0,NW,6.9,-,N/A,,Overcast,310,2013-03-31 14:35:00
9:55 AM,53.1,53.1,100,29.92,10.0,WNW,5.8,-,N/A,,Overcast,300,2013-03-31 14:55:00
10:02 AM,53.6,53.6,100,29.92,10.0,WNW,6.9,-,N/A,,Overcast,300,2013-03-31 15:02:00
10:14 AM,53.6,53.6,100,29.92,10.0,WNW,8.1,-,N/A,,Overcast,300,2013-03-31 15:14:00
10:19 AM,53.6,53.6,100,29.93,10.0,NW,8.1,-,N/A,,Overcast,320,2013-03-31 15:19:00
10:24 AM,53.6,53.6,100,29.94,10.0,NW,6.9,-,N/A,,Overcast,310,2013-03-31 15:24:00
10:36 AM,53.6,53.6,100,29.94,10.0,NW,6.9,-,N/A,,Overcast,310,2013-03-31 15:36:00
10:42 AM,53.6,53.6,100,29.94,10.0,NW,9.2,-,N/A,,Overcast,320,2013-03-31 15:42:00
10:44 AM,53.6,53.6,100,29.94,10.0,NW,8.1,-,N/A,,Overcast,310,2013-03-31 15:44:00
10:48 AM,53.6,53.6,100,29.94,10.0,NW,6.9,-,N/A,,Overcast,320,2013-03-31 15:48:00
10:51 AM,53.6,53.6,100,29.94,10.0,NW,6.9,-,N/A,,Overcast,310,2013-03-31 15:51:00
10:53 AM,53.6,53.6,100,29.94,10.0,NW,9.2,-,N/A,,Overcast,310,2013-03-31 15:53:00
10:55 AM,53.8,53.8,100,29.94,10.0,NW,9.2,-,N/A,,Overcast,310,2013-03-31 15:55:00
11:55 AM,54.0,53.8,99,29.95,10.0,NNW,5.8,-,N/A,,Overcast,330,2013-03-31 16:55:00
12:09 PM,53.6,53.6,100,29.94,10.0,NW,5.8,-,N/A,,Mostly Cloudy,320,2013-03-31 17:09:00
12:55 PM,55.2,53.4,94,29.94,10.0,NW,4.6,-,N/A,,Partly Cloudy,310,2013-03-31 17:55:00
12:58 PM,55.4,53.6,94,29.94,10.0,NW,4.6,-,N/A,,Light Drizzle,320,2013-03-31 17:58:00
1:50 PM,55.4,55.4,100,29.89,10.0,South,8.1,-,N/A,,Mostly Cloudy,190,2013-03-31 18:50:00
1:55 PM,55.4,55.4,100,29.90,10.0,Variable,3.5,-,0.02,,Mostly Cloudy,0,2013-03-31 18:55:00
2:17 PM,55.4,55.4,100,29.90,10.0,Calm,Calm,-,N/A,,Mostly Cloudy,0,2013-03-31 19:17:00
2:34 PM,57.2,53.6,88,29.90,10.0,SSW,3.5,-,N/A,,Mostly Cloudy,200,2013-03-31 19:34:00
2:55 PM,57.2,54.1,89,29.89,10.0,SSW,4.6,-,N/A,,Scattered Clouds,200,2013-03-31 19:55:00
3:55 PM,58.6,52.0,79,29.89,10.0,West,5.8,-,N/A,,Mostly Cloudy,280,2013-03-31 20:55:00
4:55 PM,58.8,49.6,72,29.90,10.0,West,6.9,-,N/A,,Mostly Cloudy,260,2013-03-31 21:55:00
5:55 PM,59.7,48.9,67,29.89,10.0,Variable,4.6,-,N/A,,Clear,0,2013-03-31 22:55:00
6:55 PM,57.9,47.1,67,29.89,10.0,West,3.5,-,N/A,,Clear,280,2013-03-31 23:55:00
7:55 PM,54.0,49.3,84,29.90,10.0,Calm,Calm,-,N/A,,Clear,0,2013-04-01 00:55:00
8:55 PM,51.4,50.7,97,29.91,10.0,South,3.5,-,N/A,,Clear,190,2013-04-01 01:55:00
9:55 PM,49.8,49.8,100,29.92,10.0,Calm,Calm,-,N/A,,Clear,0,2013-04-01 02:55:00
10:55 PM,48.4,48.4,100,29.92,10.0,SW,3.5,-,N/A,,Clear,230,2013-04-01 03:55:00
11:55 PM,47.7,47.7,100,29.92,10.0,SSW,4.6,-,N/A,,Clear,210,2013-04-01 04:55:00